| time (UTC) | temp C | wind direction | speed KPH | gust KPH | rain 1hr cm | rain 24hr cm | rain mn cm | humidity % | barometer mb |
| 20260902163704 | 32 | 23 | 1.6 | 3.2 | 0.00 | 0.00 | 0.00 | 61 | 1012.7 |
| 20260902163204 | 32 | 11 | 3.2 | 3.2 | 0.00 | 0.00 | 0.00 | 63 | 1012.7 |
| 20260902162702 | 32 | 15 | 1.6 | 3.2 | 0.00 | 0.00 | 0.00 | 64 | 1012.5 |
| 20260902162156 | 32 | 300 | 4.8 | 8.0 | 0.00 | 0.00 | 0.00 | 62 | 1012.7 |
| 20260902161652 | 32 | 357 | 3.2 | 4.8 | 0.00 | 0.00 | 0.00 | 64 | 1012.9 |
| 20260902161147 | 31 | 344 | 3.2 | 3.2 | 0.00 | 0.00 | 0.00 | 63 | 1012.8 |
| 20260902160644 | 31 | 347 | 4.8 | 8.0 | 0.00 | 0.00 | 0.00 | 62 | 1012.9 |
| 20260902160138 | 31 | 1 | 1.6 | 3.2 | 0.00 | 0.00 | 0.00 | 66 | 1012.9 |
| 20260902155637 | 31 | 10 | 1.6 | 3.2 | 0.00 | 0.00 | 0.00 | 66 | 1012.9 |
| 20260902155136 | 31 | 0 | 3.2 | 3.2 | 0.00 | 0.00 | 0.00 | 66 | 1012.8 |
| 20260902154631 | 31 | 13 | 0.0 | 1.6 | 0.00 | 0.00 | 0.00 | 68 | 1012.9 |
| 20260902154126 | 31 | 11 | 1.6 | 1.6 | 0.00 | 0.00 | 0.00 | 68 | 1013.0 |
| 20260902153625 | 30 | 353 | 1.6 | 3.2 | 0.00 | 0.00 | 0.00 | 68 | 1013.1 |
| 20260902153120 | 30 | 9 | 1.6 | 3.2 | 0.00 | 0.00 | 0.00 | 69 | 1013.1 |
| 20260902152616 | 30 | 14 | 1.6 | 3.2 | 0.00 | 0.00 | 0.00 | 70 | 1013.1 |
| 20260902152112 | 30 | 7 | 3.2 | 3.2 | 0.00 | 0.00 | 0.00 | 70 | 1013.2 |
| 20260902151608 | 30 | 353 | 1.6 | 3.2 | 0.00 | 0.00 | 0.00 | 69 | 1013.1 |
| 20260902151107 | 30 | 335 | 3.2 | 4.8 | 0.00 | 0.00 | 0.00 | 70 | 1013.0 |
| 20260902150603 | 30 | 343 | 4.8 | 4.8 | 0.00 | 0.00 | 0.00 | 70 | 1013.0 |
| 20260902150058 | 30 | 326 | 4.8 | 4.8 | 0.00 | 0.00 | 0.00 | 68 | 1013.1 |
| 20260902145558 | 30 | 337 | 4.8 | 8.0 | 0.00 | 0.00 | 0.00 | 69 | 1013.1 |
| 20260902145057 | 30 | 359 | 1.6 | 4.8 | 0.00 | 0.00 | 0.00 | 70 | 1013.1 |
| 20260902144555 | 30 | 339 | 3.2 | 4.8 | 0.00 | 0.00 | 0.00 | 72 | 1013.2 |
| 20260902144055 | 30 | 0 | 1.6 | 3.2 | 0.00 | 0.00 | 0.00 | 71 | 1012.9 |
| 20260902143550 | 30 | 348 | 3.2 | 4.8 | 0.00 | 0.00 | 0.00 | 71 | 1013.0 |
| 20260902143045 | 29 | 352 | 4.8 | 4.8 | 0.00 | 0.00 | 0.00 | 71 | 1012.9 |
| 20260902142543 | 29 | 348 | 1.6 | 3.2 | 0.00 | 0.00 | 0.00 | 72 | 1013.1 |
| 20260902142036 | 28 | 3 | 3.2 | 3.2 | 0.00 | 0.00 | 0.00 | 73 | 1012.9 |
| 20260902141536 | 28 | 14 | 0.0 | 3.2 | 0.00 | 0.00 | 0.00 | 74 | 1012.9 |
| 20260902141031 | 28 | 319 | 4.8 | 4.8 | 0.00 | 0.00 | 0.00 | 75 | 1013.0 |
| 20260902140526 | 28 | 354 | 0.0 | 3.2 | 0.00 | 0.00 | 0.00 | 77 | 1012.9 |
| 20260902140021 | 27 | 15 | 0.0 | 1.6 | 0.00 | 0.00 | 0.00 | 79 | 1013.1 |
| 20260902135520 | 27 | 15 | 0.0 | 0.0 | 0.00 | 0.00 | 0.00 | 80 | 1012.9 |
| 20260902135015 | 27 | 15 | 0.0 | 0.0 | 0.00 | 0.00 | 0.00 | 80 | 1012.9 |
| 20260902134511 | 27 | 15 | 0.0 | 0.0 | 0.00 | 0.00 | 0.00 | 81 | 1013.1 |
| 20260902134006 | 27 | 15 | 0.0 | 0.0 | 0.00 | 0.00 | 0.00 | 81 | 1012.9 |
| 20260902133501 | 27 | 15 | 0.0 | 1.6 | 0.00 | 0.00 | 0.00 | 82 | 1013.3 |
| 20260902132955 | 26 | 15 | 0.0 | 0.0 | 0.00 | 0.00 | 0.00 | 82 | 1013.2 |
| 20260902132450 | 26 | 15 | 0.0 | 0.0 | 0.00 | 0.00 | 0.00 | 83 | 1013.1 |
| 20260902131945 | 26 | 15 | 0.0 | 1.6 | 0.00 | 0.00 | 0.00 | 83 | 1013.1 |
| 20260902131442 | 26 | 14 | 0.0 | 0.0 | 0.00 | 0.00 | 0.00 | 84 | 1013.1 |
| 20260902130941 | 26 | 17 | 0.0 | 1.6 | 0.00 | 0.00 | 0.00 | 84 | 1013.1 |
| 20260902130437 | 26 | 19 | 0.0 | 0.0 | 0.00 | 0.00 | 0.00 | 84 | 1013.1 |
| 20260902125932 | 26 | 18 | 1.6 | 1.6 | 0.00 | 0.00 | 0.00 | 84 | 1013.0 |
| 20260902125428 | 25 | 19 | 1.6 | 1.6 | 0.00 | 0.00 | 0.00 | 84 | 1013.2 |
| 20260902124924 | 25 | 8 | 1.6 | 1.6 | 0.00 | 0.00 | 0.00 | 85 | 1013.4 |
| 20260902124419 | 25 | 19 | 0.0 | 1.6 | 0.00 | 0.00 | 0.00 | 86 | 1013.4 |
| 20260902123914 | 25 | 7 | 1.6 | 1.6 | 0.00 | 0.00 | 0.00 | 87 | 1013.2 |
| 20260902123411 | 25 | 13 | 1.6 | 1.6 | 0.00 | 0.00 | 0.00 | 88 | 1013.4 |
| 20260902122909 | 25 | 19 | 0.0 | 1.6 | 0.00 | 0.00 | 0.00 | 88 | 1013.2 |
| 20260902122405 | 25 | 17 | 1.6 | 1.6 | 0.00 | 0.00 | 0.00 | 89 | 1013.3 |
| 20260902121900 | 25 | 359 | 3.2 | 3.2 | 0.00 | 0.00 | 0.00 | 90 | 1013.3 |
| 20260902121355 | 25 | 21 | 1.6 | 3.2 | 0.00 | 0.00 | 0.00 | 90 | 1013.5 |
| 20260902120850 | 25 | 15 | 0.0 | 1.6 | 0.00 | 0.00 | 0.00 | 90 | 1013.2 |
| 20260902120346 | 25 | 326 | 0.0 | 1.6 | 0.00 | 0.00 | 0.00 | 90 | 1013.2 |
| 20260902115840 | 24 | 325 | 1.6 | 3.2 | 0.00 | 0.00 | 0.00 | 91 | 1013.3 |
| 20260902115337 | 24 | 329 | 0.0 | 1.6 | 0.00 | 0.00 | 0.00 | 91 | 1013.1 |
| 20260902114833 | 24 | 317 | 3.2 | 3.2 | 0.00 | 0.00 | 0.00 | 91 | 1013.3 |
| 20260902114328 | 24 | 332 | 0.0 | 0.0 | 0.00 | 0.00 | 0.00 | 90 | 1012.9 |
| 20260902113828 | 24 | 333 | 0.0 | 0.0 | 0.00 | 0.00 | 0.00 | 90 | 1013.2 |
| 20260902113325 | 23 | 333 | 0.0 | 0.0 | 0.00 | 0.00 | 0.00 | 90 | 1013.0 |
| 20260902112823 | 23 | 334 | 0.0 | 0.0 | 0.00 | 0.00 | 0.00 | 90 | 1012.9 |
| 20260902112320 | 23 | 334 | 0.0 | 0.0 | 0.00 | 0.00 | 0.00 | 90 | 1012.8 |
| 20260902111815 | 23 | 334 | 0.0 | 0.0 | 0.00 | 0.00 | 0.00 | 90 | 1013.1 |
| 20260902111312 | 23 | 337 | 0.0 | 0.0 | 0.00 | 0.00 | 0.00 | 90 | 1013.1 |
| 20260902110807 | 23 | 337 | 0.0 | 0.0 | 0.00 | 0.00 | 0.00 | 90 | 1012.9 |
| 20260902110303 | 23 | 337 | 0.0 | 0.0 | 0.00 | 0.00 | 0.00 | 90 | 1012.6 |
| 20260902105802 | 23 | 337 | 0.0 | 0.0 | 0.00 | 0.00 | 0.00 | 90 | 1012.7 |
| 20260902105257 | 23 | 337 | 0.0 | 0.0 | 0.00 | 0.00 | 0.00 | 90 | 1012.7 |
| 20260902104753 | 23 | 337 | 0.0 | 0.0 | 0.00 | 0.00 | 0.00 | 90 | 1012.8 |
| 20260902104249 | 23 | 337 | 0.0 | 0.0 | 0.00 | 0.00 | 0.00 | 90 | 1012.6 |
| 20260902103749 | 23 | 338 | 0.0 | 0.0 | 0.00 | 0.00 | 0.00 | 89 | 1012.6 |
| 20260902103248 | 24 | 338 | 0.0 | 0.0 | 0.00 | 0.00 | 0.00 | 89 | 1012.7 |
| 20260902102744 | 24 | 338 | 0.0 | 0.0 | 0.00 | 0.00 | 0.00 | 89 | 1012.4 |
| 20260902102242 | 24 | 338 | 0.0 | 0.0 | 0.00 | 0.00 | 0.00 | 89 | 1012.5 |
| 20260902101737 | 24 | 338 | 0.0 | 0.0 | 0.00 | 0.00 | 0.00 | 89 | 1012.5 |
| 20260902101231 | 24 | 338 | 0.0 | 0.0 | 0.00 | 0.00 | 0.00 | 89 | 1012.5 |
| 20260902100731 | 24 | 338 | 0.0 | 0.0 | 0.00 | 0.00 | 0.00 | 89 | 1012.3 |
| 20260902100225 | 24 | 339 | 0.0 | 0.0 | 0.00 | 0.00 | 0.00 | 89 | 1012.3 |
| 20260902095720 | 24 | 336 | 0.0 | 0.0 | 0.00 | 0.00 | 0.00 | 89 | 1012.4 |
| 20260902095214 | 24 | 336 | 0.0 | 0.0 | 0.00 | 0.00 | 0.00 | 88 | 1012.3 |
| 20260902094708 | 24 | 336 | 0.0 | 0.0 | 0.00 | 0.00 | 0.00 | 88 | 1012.4 |
| 20260902094206 | 24 | 337 | 0.0 | 0.0 | 0.00 | 0.00 | 0.00 | 88 | 1012.5 |
| 20260902093704 | 24 | 337 | 0.0 | 0.0 | 0.00 | 0.00 | 0.00 | 88 | 1012.4 |
| 20260902093200 | 24 | 337 | 0.0 | 0.0 | 0.00 | 0.00 | 0.00 | 88 | 1012.5 |
| 20260902092700 | 24 | 336 | 0.0 | 0.0 | 0.00 | 0.00 | 0.00 | 88 | 1012.1 |
| 20260902092155 | 24 | 336 | 0.0 | 0.0 | 0.00 | 0.00 | 0.00 | 88 | 1012.4 |
| 20260902091654 | 24 | 336 | 0.0 | 0.0 | 0.00 | 0.00 | 0.00 | 87 | 1012.2 |
| 20260902091152 | 24 | 338 | 0.0 | 0.0 | 0.00 | 0.00 | 0.00 | 87 | 1012.2 |
| 20260902090647 | 24 | 336 | 0.0 | 0.0 | 0.00 | 0.00 | 0.00 | 87 | 1012.1 |
| 20260902090146 | 24 | 336 | 0.0 | 0.0 | 0.00 | 0.00 | 0.00 | 87 | 1012.1 |
| 20260902085641 | 24 | 336 | 0.0 | 0.0 | 0.00 | 0.00 | 0.00 | 87 | 1012.2 |
| 20260902085136 | 24 | 336 | 0.0 | 0.0 | 0.00 | 0.00 | 0.00 | 87 | 1012.1 |
| 20260902084632 | 24 | 336 | 0.0 | 0.0 | 0.00 | 0.00 | 0.00 | 86 | 1012.0 |
| 20260902084127 | 24 | 336 | 0.0 | 0.0 | 0.00 | 0.00 | 0.00 | 86 | 1011.9 |
| 20260902083623 | 25 | 336 | 0.0 | 0.0 | 0.00 | 0.00 | 0.00 | 86 | 1012.0 |
| 20260902083122 | 25 | 336 | 0.0 | 0.0 | 0.00 | 0.00 | 0.00 | 86 | 1011.9 |
| 20260902082618 | 25 | 336 | 0.0 | 0.0 | 0.00 | 0.00 | 0.00 | 86 | 1011.9 |
| 20260902082114 | 25 | 336 | 0.0 | 0.0 | 0.00 | 0.00 | 0.00 | 86 | 1011.8 |
| 20260902081611 | 25 | 336 | 0.0 | 0.0 | 0.00 | 0.00 | 0.00 | 86 | 1011.8 |
| 20260902081105 | 25 | 336 | 0.0 | 0.0 | 0.00 | 0.00 | 0.00 | 85 | 1011.9 |
| 20260902080600 | 25 | 335 | 0.0 | 0.0 | 0.00 | 0.00 | 0.00 | 85 | 1011.8 |
| 20260902080057 | 25 | 336 | 0.0 | 0.0 | 0.00 | 0.00 | 0.00 | 85 | 1011.6 |
| 20260902075556 | 25 | 335 | 0.0 | 0.0 | 0.00 | 0.00 | 0.00 | 85 | 1011.6 |
| 20260902075052 | 25 | 336 | 0.0 | 0.0 | 0.00 | 0.00 | 0.00 | 85 | 1011.8 |
| 20260902074547 | 25 | 335 | 0.0 | 0.0 | 0.00 | 0.00 | 0.00 | 85 | 1011.4 |
| 20260902074043 | 25 | 339 | 0.0 | 0.0 | 0.00 | 0.00 | 0.00 | 85 | 1011.7 |
| 20260902073538 | 25 | 336 | 0.0 | 0.0 | 0.00 | 0.00 | 0.00 | 85 | 1011.5 |
| 20260902073034 | 25 | 336 | 0.0 | 0.0 | 0.00 | 0.00 | 0.00 | 84 | 1011.5 |
| 20260902072530 | 25 | 337 | 0.0 | 0.0 | 0.00 | 0.00 | 0.00 | 84 | 1011.7 |
| 20260902072027 | 25 | 338 | 0.0 | 0.0 | 0.00 | 0.00 | 0.00 | 84 | 1011.9 |
| 20260902071525 | 25 | 337 | 0.0 | 0.0 | 0.00 | 0.00 | 0.00 | 85 | 1011.9 |
| 20260902071022 | 25 | 337 | 0.0 | 0.0 | 0.00 | 0.00 | 0.00 | 85 | 1011.7 |
| 20260902070518 | 25 | 336 | 0.0 | 0.0 | 0.00 | 0.00 | 0.00 | 85 | 1011.9 |
| 20260902070017 | 25 | 336 | 0.0 | 0.0 | 0.00 | 0.00 | 0.00 | 85 | 1011.9 |
| 20260902065511 | 25 | 336 | 0.0 | 0.0 | 0.00 | 0.00 | 0.00 | 86 | 1012.0 |
| 20260902065006 | 25 | 336 | 0.0 | 0.0 | 0.00 | 0.00 | 0.00 | 86 | 1011.7 |
| 20260902064502 | 25 | 337 | 0.0 | 0.0 | 0.00 | 0.00 | 0.00 | 86 | 1011.9 |
| 20260902063958 | 25 | 337 | 0.0 | 0.0 | 0.00 | 0.00 | 0.00 | 86 | 1011.8 |
| 20260902063457 | 25 | 337 | 0.0 | 0.0 | 0.00 | 0.00 | 0.00 | 87 | 1011.8 |
| 20260902062953 | 25 | 337 | 0.0 | 0.0 | 0.00 | 0.00 | 0.00 | 88 | 1011.9 |
| 20260902062445 | 25 | 337 | 0.0 | 0.0 | 0.00 | 0.00 | 0.00 | 88 | 1011.9 |
| 20260902061941 | 25 | 337 | 0.0 | 0.0 | 0.00 | 0.00 | 0.00 | 89 | 1012.0 |
| 20260902061436 | 25 | 336 | 0.0 | 0.0 | 0.00 | 0.00 | 0.00 | 90 | 1012.1 |
| 20260902060932 | 25 | 337 | 0.0 | 0.0 | 0.00 | 0.00 | 0.00 | 90 | 1012.2 |
| 20260902060428 | 25 | 337 | 0.0 | 0.0 | 0.00 | 0.00 | 0.00 | 90 | 1012.0 |
| 20260902055923 | 25 | 337 | 0.0 | 0.0 | 0.00 | 0.00 | 0.00 | 90 | 1012.0 |
| 20260902055420 | 25 | 337 | 0.0 | 0.0 | 0.00 | 0.00 | 0.00 | 90 | 1012.0 |
| 20260902054915 | 25 | 337 | 0.0 | 0.0 | 0.00 | 0.00 | 0.00 | 90 | 1011.9 |
| 20260902054410 | 25 | 337 | 0.0 | 0.0 | 0.00 | 0.00 | 0.00 | 90 | 1011.7 |
| 20260902053905 | 25 | 337 | 0.0 | 0.0 | 0.00 | 0.00 | 0.00 | 90 | 1012.0 |
| 20260902053400 | 25 | 337 | 0.0 | 0.0 | 0.00 | 0.00 | 0.00 | 90 | 1011.9 |
| 20260902052859 | 25 | 337 | 0.0 | 0.0 | 0.00 | 0.00 | 0.00 | 90 | 1011.7 |
| 20260902052354 | 25 | 338 | 0.0 | 0.0 | 0.00 | 0.00 | 0.00 | 90 | 1012.0 |
| 20260902051850 | 26 | 337 | 0.0 | 0.0 | 0.00 | 0.00 | 0.00 | 90 | 1012.0 |
| 20260902051349 | 25 | 337 | 0.0 | 0.0 | 0.00 | 0.00 | 0.00 | 90 | 1011.9 |
| 20260902050844 | 26 | 337 | 0.0 | 0.0 | 0.00 | 0.00 | 0.00 | 90 | 1012.1 |
| 20260902050343 | 26 | 337 | 0.0 | 0.0 | 0.00 | 0.00 | 0.00 | 90 | 1011.7 |
| 20260902045838 | 26 | 338 | 0.0 | 1.6 | 0.00 | 0.00 | 0.00 | 90 | 1011.7 |
| 20260902045334 | 26 | 338 | 0.0 | 0.0 | 0.00 | 0.00 | 0.00 | 90 | 1012.0 |
| 20260902044830 | 26 | 338 | 0.0 | 0.0 | 0.00 | 0.00 | 0.00 | 90 | 1011.7 |
| 20260902044326 | 26 | 338 | 0.0 | 0.0 | 0.00 | 0.00 | 0.00 | 90 | 1011.6 |
| 20260902043827 | 26 | 338 | 0.0 | 0.0 | 0.00 | 0.00 | 0.00 | 90 | 1011.7 |
| 20260902043321 | 26 | 339 | 0.0 | 1.6 | 0.00 | 0.00 | 0.00 | 90 | 1011.7 |
| 20260902042820 | 26 | 343 | 0.0 | 1.6 | 0.00 | 0.00 | 0.00 | 90 | 1011.7 |
| 20260902042315 | 26 | 341 | 0.0 | 0.0 | 0.00 | 0.00 | 0.00 | 90 | 1011.4 |
| 20260902041811 | 26 | 336 | 0.0 | 0.0 | 0.00 | 0.00 | 0.00 | 90 | 1011.7 |
| 20260902041310 | 26 | 336 | 0.0 | 0.0 | 0.00 | 0.00 | 0.00 | 90 | 1011.7 |
| 20260902040809 | 26 | 333 | 0.0 | 0.0 | 0.00 | 0.00 | 0.00 | 89 | 1011.6 |
| 20260902040305 | 26 | 332 | 0.0 | 0.0 | 0.00 | 0.00 | 0.00 | 89 | 1011.8 |
| 20260902035803 | 26 | 328 | 0.0 | 1.6 | 0.00 | 0.00 | 0.00 | 89 | 1011.7 |
| 20260902035259 | 26 | 335 | 0.0 | 0.0 | 0.00 | 0.00 | 0.00 | 89 | 1011.6 |
| 20260902034758 | 26 | 337 | 0.0 | 0.0 | 0.00 | 0.00 | 0.00 | 89 | 1011.6 |
| 20260902034253 | 26 | 336 | 0.0 | 0.0 | 0.00 | 0.00 | 0.00 | 89 | 1011.6 |
| 20260902033751 | 26 | 329 | 0.0 | 1.6 | 0.00 | 0.00 | 0.00 | 89 | 1011.6 |
| 20260902033247 | 26 | 336 | 0.0 | 0.0 | 0.00 | 0.00 | 0.00 | 89 | 1011.4 |
| 20260902032745 | 26 | 328 | 0.0 | 0.0 | 0.00 | 0.00 | 0.00 | 88 | 1011.6 |
| 20260902032241 | 26 | 328 | 0.0 | 0.0 | 0.00 | 0.00 | 0.00 | 88 | 1011.5 |
| 20260902031740 | 26 | 328 | 0.0 | 0.0 | 0.00 | 0.00 | 0.00 | 88 | 1011.5 |
| 20260902031236 | 27 | 328 | 0.0 | 0.0 | 0.00 | 0.00 | 0.00 | 88 | 1011.6 |
| 20260902030732 | 27 | 327 | 0.0 | 0.0 | 0.00 | 0.00 | 0.00 | 88 | 1011.6 |
| 20260902030231 | 27 | 326 | 0.0 | 1.6 | 0.00 | 0.00 | 0.00 | 88 | 1011.6 |
| 20260902025730 | 27 | 330 | 0.0 | 0.0 | 0.00 | 0.00 | 0.00 | 88 | 1011.5 |
| 20260902025226 | 27 | 328 | 0.0 | 1.6 | 0.00 | 0.00 | 0.00 | 88 | 1011.3 |
| 20260902024721 | 27 | 328 | 0.0 | 0.0 | 0.00 | 0.00 | 0.00 | 88 | 1011.5 |
| 20260902024216 | 27 | 329 | 0.0 | 1.6 | 0.00 | 0.00 | 0.00 | 88 | 1011.6 |
| 20260902023712 | 26 | 334 | 0.0 | 0.0 | 0.00 | 0.00 | 0.00 | 88 | 1011.6 |
| 20260902023207 | 26 | 331 | 0.0 | 1.6 | 0.00 | 0.00 | 0.00 | 88 | 1011.6 |
| 20260902022707 | 27 | 332 | 0.0 | 1.6 | 0.00 | 0.00 | 0.00 | 87 | 1011.7 |
| 20260902022202 | 27 | 336 | 0.0 | 0.0 | 0.00 | 0.00 | 0.00 | 87 | 1011.7 |
| 20260902021658 | 27 | 336 | 0.0 | 0.0 | 0.00 | 0.00 | 0.00 | 87 | 1011.4 |
| 20260902021152 | 27 | 336 | 0.0 | 0.0 | 0.00 | 0.00 | 0.00 | 87 | 1011.5 |
| 20260902020648 | 27 | 336 | 0.0 | 0.0 | 0.00 | 0.00 | 0.00 | 86 | 1011.5 |
| 20260902020144 | 27 | 336 | 0.0 | 0.0 | 0.00 | 0.00 | 0.00 | 86 | 1011.3 |
| 20260902015639 | 27 | 336 | 0.0 | 0.0 | 0.00 | 0.00 | 0.00 | 86 | 1011.4 |
| 20260902015136 | 27 | 336 | 0.0 | 0.0 | 0.00 | 0.00 | 0.00 | 85 | 1011.4 |
| 20260902014631 | 27 | 336 | 0.0 | 0.0 | 0.00 | 0.00 | 0.00 | 85 | 1011.3 |
| 20260902014126 | 27 | 335 | 0.0 | 0.0 | 0.00 | 0.00 | 0.00 | 85 | 1011.1 |
| 20260902013626 | 27 | 334 | 0.0 | 0.0 | 0.00 | 0.00 | 0.00 | 85 | 1011.0 |
| 20260902013121 | 27 | 333 | 0.0 | 0.0 | 0.00 | 0.00 | 0.00 | 84 | 1011.0 |
| 20260902012617 | 27 | 334 | 0.0 | 0.0 | 0.00 | 0.00 | 0.00 | 84 | 1011.1 |
| 20260902012112 | 28 | 333 | 0.0 | 0.0 | 0.00 | 0.00 | 0.00 | 84 | 1011.1 |
| 20260902011608 | 28 | 334 | 0.0 | 0.0 | 0.00 | 0.00 | 0.00 | 84 | 1011.0 |
| 20260902011107 | 28 | 334 | 0.0 | 0.0 | 0.00 | 0.00 | 0.00 | 84 | 1010.9 |
| 20260902010607 | 28 | 334 | 0.0 | 0.0 | 0.00 | 0.00 | 0.00 | 84 | 1010.9 |
| 20260902005600 | 28 | 331 | 0.0 | 0.0 | 0.00 | 0.00 | 0.00 | 82 | 1010.8 |
| 20260902005057 | 28 | 331 | 0.0 | 0.0 | 0.00 | 0.00 | 0.00 | 82 | 1010.8 |
| 20260902004555 | 28 | 332 | 0.0 | 0.0 | 0.00 | 0.00 | 0.00 | 81 | 1010.7 |
| 20260902004051 | 29 | 331 | 0.0 | 0.0 | 0.00 | 0.00 | 0.00 | 81 | 1010.6 |
| 20260902003546 | 29 | 332 | 0.0 | 0.0 | 0.00 | 0.00 | 0.00 | 80 | 1010.5 |
| 20260902003042 | 29 | 332 | 0.0 | 0.0 | 0.00 | 0.00 | 0.00 | 80 | 1010.8 |
| 20260902002538 | 29 | 331 | 0.0 | 0.0 | 0.00 | 0.00 | 0.00 | 79 | 1010.6 |
| 20260902002032 | 30 | 327 | 0.0 | 0.0 | 0.00 | 0.00 | 0.00 | 79 | 1010.7 |
| 20260902001527 | 30 | 327 | 0.0 | 0.0 | 0.00 | 0.00 | 0.00 | 79 | 1010.6 |
| 20260902001022 | 30 | 326 | 0.0 | 0.0 | 0.00 | 0.00 | 0.00 | 78 | 1010.4 |
| 20260902000517 | 30 | 326 | 0.0 | 0.0 | 0.00 | 0.00 | 0.00 | 78 | 1010.6 |
| 20260902000012 | 30 | 329 | 0.0 | 0.0 | 0.00 | 0.00 | 0.00 | 77 | 1010.5 |
| 20260901235507 | 30 | 32 | 0.0 | 0.0 | 0.00 | 0.00 | 0.00 | 76 | 1010.6 |
| 20260901235003 | 30 | 31 | 0.0 | 0.0 | 0.00 | 0.00 | 0.00 | 74 | 1010.8 |
| 20260901234501 | 31 | 31 | 0.0 | 0.0 | 0.00 | 0.00 | 0.00 | 73 | 1010.7 |
| 20260901233956 | 31 | 31 | 0.0 | 0.0 | 0.00 | 0.00 | 0.00 | 72 | 1010.7 |
| 20260901233451 | 31 | 31 | 0.0 | 0.0 | 0.00 | 0.00 | 0.00 | 71 | 1010.8 |
| 20260901232947 | 32 | 31 | 0.0 | 0.0 | 0.00 | 0.00 | 0.00 | 70 | 1010.7 |
| 20260901232442 | 32 | 31 | 0.0 | 0.0 | 0.00 | 0.00 | 0.00 | 68 | 1010.5 |
| 20260901231937 | 32 | 31 | 0.0 | 0.0 | 0.00 | 0.00 | 0.00 | 66 | 1010.8 |
| 20260901231434 | 32 | 31 | 0.0 | 0.0 | 0.00 | 0.00 | 0.00 | 64 | 1010.7 |
| 20260901230930 | 32 | 31 | 0.0 | 0.0 | 0.00 | 0.00 | 0.00 | 65 | 1010.7 |
| 20260901230429 | 32 | 31 | 0.0 | 0.0 | 0.00 | 0.00 | 0.00 | 61 | 1010.9 |
| 20260901225925 | 32 | 31 | 0.0 | 0.0 | 0.00 | 0.00 | 0.00 | 55 | 1010.6 |
| 20260901225424 | 32 | 31 | 0.0 | 0.0 | 0.00 | 0.00 | 0.00 | 54 | 1010.7 |
| 20260901224919 | 33 | 31 | 0.0 | 0.0 | 0.00 | 0.00 | 0.00 | 55 | 1010.8 |
| 20260901224416 | 33 | 31 | 0.0 | 0.0 | 0.00 | 0.00 | 0.00 | 53 | 1010.8 |
| 20260901223912 | 33 | 31 | 0.0 | 0.0 | 0.00 | 0.00 | 0.00 | 54 | 1010.7 |
| 20260901223407 | 33 | 31 | 0.0 | 1.6 | 0.00 | 0.00 | 0.00 | 54 | 1010.8 |
| 20260901222902 | 33 | 31 | 0.0 | 1.6 | 0.00 | 0.00 | 0.00 | 53 | 1010.9 |
| 20260901222359 | 33 | 31 | 0.0 | 1.6 | 0.00 | 0.00 | 0.00 | 52 | 1010.6 |
| 20260901221854 | 33 | 31 | 0.0 | 0.0 | 0.00 | 0.00 | 0.00 | 53 | 1010.9 |
| 20260901221350 | 33 | 31 | 0.0 | 0.0 | 0.00 | 0.00 | 0.00 | 53 | 1010.7 |
| 20260901220850 | 33 | 31 | 0.0 | 1.6 | 0.00 | 0.00 | 0.00 | 53 | 1010.8 |
| 20260901220348 | 33 | 31 | 0.0 | 0.0 | 0.00 | 0.00 | 0.00 | 53 | 1010.4 |
| 20260901215848 | 33 | 31 | 0.0 | 0.0 | 0.00 | 0.00 | 0.00 | 53 | 1010.5 |
| 20260901215347 | 33 | 31 | 0.0 | 0.0 | 0.00 | 0.00 | 0.00 | 53 | 1010.7 |
| 20260901214846 | 34 | 18 | 0.0 | 0.0 | 0.00 | 0.00 | 0.00 | 52 | 1010.5 |
| 20260901214345 | 34 | 17 | 0.0 | 0.0 | 0.00 | 0.00 | 0.00 | 51 | 1010.6 |
| 20260901213845 | 34 | 17 | 0.0 | 0.0 | 0.00 | 0.00 | 0.00 | 50 | 1010.9 |
| 20260901213339 | 34 | 17 | 0.0 | 3.2 | 0.00 | 0.00 | 0.00 | 49 | 1010.6 |
| 20260901212834 | 34 | 354 | 4.8 | 4.8 | 0.00 | 0.00 | 0.00 | 51 | 1010.6 |
| 20260901212330 | 34 | 15 | 1.6 | 3.2 | 0.00 | 0.00 | 0.00 | 52 | 1010.7 |
| 20260901211826 | 34 | 345 | 3.2 | 3.2 | 0.00 | 0.00 | 0.00 | 50 | 1010.5 |
| 20260901211321 | 34 | 8 | 1.6 | 4.8 | 0.00 | 0.00 | 0.00 | 50 | 1010.6 |
| 20260901210816 | 34 | 18 | 3.2 | 3.2 | 0.00 | 0.00 | 0.00 | 52 | 1010.7 |
| 20260901210312 | 34 | 30 | 1.6 | 1.6 | 0.00 | 0.00 | 0.00 | 49 | 1010.7 |
| 20260901205808 | 34 | 29 | 0.0 | 1.6 | 0.00 | 0.00 | 0.00 | 49 | 1010.7 |
| 20260901205308 | 33 | 10 | 1.6 | 1.6 | 0.00 | 0.00 | 0.00 | 50 | 1010.7 |
| 20260901204804 | 33 | 14 | 1.6 | 4.8 | 0.00 | 0.00 | 0.00 | 50 | 1010.7 |
| 20260901204300 | 33 | 342 | 4.8 | 4.8 | 0.00 | 0.00 | 0.00 | 52 | 1010.8 |
| 20260901203759 | 33 | 348 | 3.2 | 4.8 | 0.00 | 0.00 | 0.00 | 52 | 1010.9 |
| 20260901203300 | 33 | 345 | 3.2 | 3.2 | 0.00 | 0.00 | 0.00 | 50 | 1010.7 |
| 20260901202754 | 33 | 357 | 3.2 | 3.2 | 0.00 | 0.00 | 0.00 | 53 | 1010.8 |
| 20260901202250 | 33 | 7 | 3.2 | 4.8 | 0.00 | 0.00 | 0.00 | 51 | 1011.0 |
| 20260901201745 | 33 | 343 | 4.8 | 4.8 | 0.00 | 0.00 | 0.00 | 52 | 1011.1 |
| 20260901201244 | 33 | 342 | 3.2 | 4.8 | 0.00 | 0.00 | 0.00 | 51 | 1011.1 |
| 20260901200738 | 33 | 309 | 4.8 | 4.8 | 0.00 | 0.00 | 0.00 | 54 | 1011.2 |
| 20260901200234 | 34 | 10 | 1.6 | 3.2 | 0.00 | 0.00 | 0.00 | 52 | 1011.1 |
| 20260901195732 | 35 | 5 | 1.6 | 3.2 | 0.00 | 0.00 | 0.00 | 49 | 1011.2 |
| 20260901195226 | 34 | 0 | 1.6 | 3.2 | 0.00 | 0.00 | 0.00 | 50 | 1011.4 |
| 20260901194722 | 34 | 334 | 3.2 | 3.2 | 0.00 | 0.00 | 0.00 | 50 | 1011.4 |
| 20260901194217 | 34 | 25 | 0.0 | 3.2 | 0.00 | 0.00 | 0.00 | 51 | 1011.6 |
| 20260901193713 | 33 | 10 | 3.2 | 3.2 | 0.00 | 0.00 | 0.00 | 51 | 1011.3 |
| 20260901193207 | 34 | 3 | 3.2 | 4.8 | 0.00 | 0.00 | 0.00 | 50 | 1011.3 |
| 20260901192707 | 34 | 353 | 3.2 | 3.2 | 0.00 | 0.00 | 0.00 | 53 | 1011.5 |
| 20260901192202 | 34 | 241 | 3.2 | 4.8 | 0.00 | 0.00 | 0.00 | 52 | 1011.6 |
| 20260901191658 | 35 | 337 | 4.8 | 4.8 | 0.00 | 0.00 | 0.00 | 52 | 1011.8 |
| 20260901191154 | 35 | 18 | 0.0 | 1.6 | 0.00 | 0.00 | 0.00 | 49 | 1011.5 |
| 20260901190650 | 34 | 15 | 0.0 | 1.6 | 0.00 | 0.00 | 0.00 | 52 | 1012.1 |
| 20260901190148 | 34 | 5 | 1.6 | 4.8 | 0.00 | 0.00 | 0.00 | 51 | 1012.0 |
| 20260901185647 | 33 | 2 | 1.6 | 3.2 | 0.00 | 0.00 | 0.00 | 54 | 1011.8 |
| 20260901185145 | 33 | 6 | 4.8 | 4.8 | 0.00 | 0.00 | 0.00 | 53 | 1011.9 |
| 20260901184641 | 33 | 357 | 3.2 | 4.8 | 0.00 | 0.00 | 0.00 | 54 | 1011.9 |
| 20260901184131 | 32 | 1 | 3.2 | 8.0 | 0.00 | 0.00 | 0.00 | 54 | 1012.0 |
| 20260901183626 | 33 | 347 | 3.2 | 4.8 | 0.00 | 0.00 | 0.00 | 55 | 1012.0 |
| 20260901183121 | 32 | 5 | 4.8 | 4.8 | 0.00 | 0.00 | 0.00 | 57 | 1012.1 |
| 20260901182617 | 32 | 346 | 3.2 | 4.8 | 0.00 | 0.00 | 0.00 | 56 | 1012.1 |
| 20260901182117 | 32 | 342 | 4.8 | 8.0 | 0.00 | 0.00 | 0.00 | 55 | 1012.1 |
| 20260901181616 | 32 | 325 | 4.8 | 4.8 | 0.00 | 0.00 | 0.00 | 56 | 1012.2 |
| 20260901181116 | 32 | 357 | 1.6 | 4.8 | 0.00 | 0.00 | 0.00 | 57 | 1012.3 |
| 20260901180610 | 32 | 355 | 3.2 | 3.2 | 0.00 | 0.00 | 0.00 | 57 | 1012.4 |
| 20260901180104 | 32 | 352 | 3.2 | 4.8 | 0.00 | 0.00 | 0.00 | 57 | 1012.5 |
| 20260901175603 | 32 | 355 | 1.6 | 4.8 | 0.00 | 0.00 | 0.00 | 57 | 1012.4 |
| 20260901175058 | 32 | 359 | 0.0 | 1.6 | 0.00 | 0.00 | 0.00 | 58 | 1012.4 |
| 20260901174554 | 32 | 357 | 1.6 | 3.2 | 0.00 | 0.00 | 0.00 | 58 | 1012.5 |
| 20260901174050 | 32 | 356 | 1.6 | 3.2 | 0.00 | 0.00 | 0.00 | 58 | 1012.6 |
| 20260901173549 | 32 | 357 | 1.6 | 3.2 | 0.00 | 0.00 | 0.00 | 56 | 1012.7 |
| 20260901173046 | 32 | 357 | 1.6 | 3.2 | 0.00 | 0.00 | 0.00 | 57 | 1012.6 |
| 20260901172541 | 32 | 358 | 0.0 | 3.2 | 0.00 | 0.00 | 0.00 | 59 | 1012.5 |
| 20260901172038 | 32 | 357 | 3.2 | 3.2 | 0.00 | 0.00 | 0.00 | 58 | 1012.8 |
| 20260901171533 | 31 | 355 | 1.6 | 3.2 | 0.00 | 0.00 | 0.00 | 58 | 1012.9 |
| 20260901171032 | 31 | 355 | 3.2 | 4.8 | 0.00 | 0.00 | 0.00 | 59 | 1012.9 |
| 20260901170531 | 31 | 313 | 4.8 | 4.8 | 0.00 | 0.00 | 0.00 | 62 | 1013.2 |
| 20260901170026 | 31 | 349 | 3.2 | 3.2 | 0.00 | 0.00 | 0.00 | 61 | 1013.1 |
| 20260901165520 | 31 | 356 | 3.2 | 3.2 | 0.00 | 0.00 | 0.00 | 59 | 1013.1 |
| 20260901165016 | 31 | 359 | 1.6 | 1.6 | 0.00 | 0.00 | 0.00 | 62 | 1013.0 |
| 20260901164512 | 31 | 359 | 0.0 | 1.6 | 0.00 | 0.00 | 0.00 | 61 | 1013.1 |